,,PA_Meas_PMT16A,,PR_Meas_QMR101_102,,RH_Meas_QMH101,,SR_Meas_QMS101,,TA_Meas_QMH101,,GenWind,,GenWind,
time,status,PA,status,PR,status,RH,status,SR,status,TA,status,DirAvg,status,SpdAvg,
2013-05-31, 06:59:04,INVALID - VALUE NOT AVAILABLE,0,INVALID - VALUE NOT AVAILABLE,0,INVALID - VALUE NOT AVAILABLE,0,INVALID - VALUE NOT AVAILABLE,0,INVALID - VALUE NOT AVAILABLE,0,INVALID,360,INVALID,0,
2013-05-31, 16:21:04,VALID,914.01,VALID,0,VALID,58.4182,VALID,162.021,VALID,29.1042,VALID,52,VALID,0,
2013-05-31, 16:22:04,VALID,914.259,VALID,0,VALID,60.042,VALID,367.019,VALID,28.9088,VALID,36,VALID,0,
2013-05-31, 16:23:04,VALID,913.952,VALID,0,VALID,60.2707,VALID,367.126,VALID,28.7524,VALID,165,VALID,0,
2013-05-31, 16:24:04,VALID,913.977,VALID,0,VALID,60.5985,VALID,362.506,VALID,28.7524,VALID,52,VALID,0,
2013-05-31, 16:25:04,VALID,914.008,VALID,0,VALID,60.164,VALID,361.647,VALID,28.8284,VALID,40,VALID,0,
2013-05-31, 16:26:04,VALID,914.021,VALID,0,VALID,58.6927,VALID,359.606,VALID,28.8328,VALID,281,VALID,0,
2013-05-31, 16:27:04,INVALID,918.19,VALID,0,VALID,60.6367,VALID,362.292,VALID,28.8328,VALID,344,VALID,0,
2013-05-31, 16:28:04,VALID,914.018,VALID,0,VALID,60.1183,VALID,359.498,VALID,28.7719,VALID,82,VALID,0,
2013-05-31, 16:29:04,VALID,913.959,VALID,0,VALID,59.4322,VALID,352.944,VALID,28.8306,VALID,34,VALID,0,
2013-05-31, 16:34:04,VALID,914.005,VALID,0,VALID,61.7954,VALID,308.464,VALID,27.9511,VALID,28,VALID,0,
2013-05-31, 16:35:04,VALID,914.048,VALID,0,VALID,63.282,VALID,276.446,VALID,27.7752,VALID,59,VALID,0,
2013-05-31, 16:36:04,VALID,913.999,VALID,0,VALID,62.3443,VALID,344.241,VALID,27.7557,VALID,360,VALID,0,
2013-05-31, 16:37:04,VALID,913.911,VALID,0,VALID,63.8614,VALID,337.902,VALID,27.7166,VALID,7,VALID,0,
2013-05-31, 16:38:04,VALID,914.141,VALID,0,VALID,63.5336,VALID,329.522,VALID,27.658,VALID,359,VALID,0,
2013-05-31, 16:39:04,VALID,914.113,VALID,0,VALID,64.2883,VALID,321.894,VALID,27.7557,VALID,11,VALID,0,
2013-05-31, 16:40:04,VALID,914.066,VALID,0,VALID,64.1053,VALID,313.084,VALID,27.9728,VALID,33,VALID,0,
2013-05-31, 16:41:04,VALID,914.077,VALID,0,VALID,62.4282,VALID,302.125,VALID,28.1661,VALID,352,VALID,0,
2013-05-31, 16:42:04,VALID,914.003,VALID,0,VALID,62.108,VALID,291.918,VALID,28.3419,VALID,29,VALID,0,
2013-05-31, 16:43:04,VALID,914.017,VALID,0,VALID,59.5922,VALID,279.347,VALID,28.3615,VALID,184,VALID,0,
2013-05-31, 16:44:04,VALID,914.052,VALID,0,VALID,62.2452,VALID,271.396,VALID,28.2833,VALID,17,VALID,0,
2013-05-31, 16:45:04,VALID,914.071,VALID,0,VALID,62.047,VALID,265.702,VALID,28.381,VALID,4,VALID,0,
2013-05-31, 16:46:04,VALID,914.044,VALID,0,VALID,63.4344,VALID,261.834,VALID,28.3636,VALID,18,VALID,0,
2013-05-31, 16:47:04,VALID,914.038,VALID,0,VALID,61.1855,VALID,258.611,VALID,28.4223,VALID,34,VALID,0,
2013-05-31, 16:48:04,VALID,913.996,VALID,0,VALID,62.5044,VALID,253.776,VALID,28.4592,VALID,29,VALID,0,
2013-05-31, 16:49:04,VALID,914.121,VALID,0,VALID,60.8882,VALID,250.875,VALID,28.4201,VALID,48,VALID,0,
2013-05-31, 16:50:04,VALID,914.054,VALID,0,VALID,62.1156,VALID,247.007,VALID,28.4397,VALID,6,VALID,0,
2013-05-31, 16:51:04,VALID,914.06,VALID,0,VALID,61.7802,VALID,244.429,VALID,28.5178,VALID,329,VALID,0,
2013-05-31, 16:52:04,VALID,913.972,VALID,0,VALID,61.3075,VALID,240.238,VALID,28.6547,VALID,42,VALID,0,
2013-05-31, 16:53:04,VALID,914.122,VALID,0,VALID,60.751,VALID,235.296,VALID,28.6938,VALID,5,VALID,0,
2013-05-31, 16:54:04,VALID,914.182,VALID,0,VALID,59.7828,VALID,230.461,VALID,28.8132,VALID,344,VALID,0,
2013-05-31, 16:55:04,VALID,914.089,VALID,0,VALID,59.2644,VALID,226.379,VALID,28.8523,VALID,95,VALID,0,
2013-05-31, 16:56:04,VALID,914.217,VALID,0,VALID,59.638,VALID,224.982,VALID,28.8523,VALID,144,VALID,0,
2013-05-31, 16:57:04,VALID,914.222,VALID,0,VALID,61.4752,VALID,224.015,VALID,28.6938,VALID,86,VALID,0,
2013-05-31, 16:58:04,VALID,914.191,VALID,0,VALID,60.9492,VALID,220.899,VALID,28.7328,VALID,122,VALID,0,
2013-05-31, 16:59:04,VALID,914.247,VALID,0,VALID,61.4219,VALID,218.32,VALID,28.7719,VALID,82,VALID,0,
2013-05-31, 17:00:04,VALID,914.299,VALID,0,VALID,62.2833,VALID,212.196,VALID,28.7155,VALID,332,VALID,0,
2013-05-31, 17:01:04,VALID,914.274,VALID,0,VALID,63.9376,VALID,209.188,VALID,28.5005,VALID,29,VALID,0,
2013-05-31, 17:02:04,VALID,914.281,VALID,0,VALID,63.9681,VALID,206.824,VALID,28.2659,VALID,221,VALID,0,
2013-05-31, 17:03:04,VALID,914.233,VALID,0,VALID,64.5551,VALID,203.386,VALID,28.1682,VALID,26,VALID,0,
2013-05-31, 17:04:04,VALID,914.208,VALID,0,VALID,65.5385,VALID,200.7,VALID,28.1096,VALID,33,VALID,0,
2013-05-31, 17:05:04,VALID,914.164,VALID,0,VALID,65.9197,VALID,198.121,VALID,28.0314,VALID,40,VALID,0,
2013-05-31, 17:06:04,VALID,914.179,VALID,0,VALID,65.9883,VALID,194.254,VALID,28.0097,VALID,18,VALID,0,
2013-05-31, 17:07:04,VALID,914.184,VALID,0,VALID,66.5982,VALID,185.229,VALID,28.0293,VALID,13,VALID,0,
2013-05-31, 17:11:04,VALID,914.26,VALID,0,VALID,67.7341,VALID,161.699,VALID,27.621,VALID,54,VALID,0,
2013-05-31, 17:12:04,VALID,914.309,VALID,0,VALID,68.4888,VALID,183.509,VALID,27.4842,VALID,9,VALID,0,
2013-05-31, 17:18:04,VALID,914.216,VALID,0,VALID,71.7897,VALID,164.707,VALID,26.9546,VALID,16,VALID,0,
2013-05-31, 17:25:04,VALID,914.249,VALID,0,VALID,74.3969,VALID,146.013,VALID,26.3316,VALID,38,VALID,0,
